LEDSAT

Last updated on Tue Jul 01 2025 00:03:07 GMT+0000 (Coordinated Universal Time)

1 49069U 21073D 25181.44658784 .00059255 00000+0 64399-3 0 9993 2 49069 97.3876 263.8960 0007057 2.1984 357.9304 15.63264519214692
UTC large
Height (km)
Speed (km/s)
/
Latitude / Longitude
Inclination (degrees)
Orbital Period (minutes)
Azimuth
Elevation
Range (km)
Doppler Factor

Next 0 passes for location: London (51.5072 / 0.1276)

Sorry there are no passes over London.